GSE Systems ROE 2010-2024 | GVP

Current and historical return on equity (ROE) values for GSE Systems (GVP) over the last 10 years. Return on equity can be defined as the amount of net income returned as a percentage of shareholders equity. Return on equity measures a corporation's profitability by revealing how much profit a company generates with the money shareholders have invested.
GSE Systems ROE - Return on Equity Historical Data
Date TTM Net Income Shareholder's Equity Return on Equity
2024-03-31 $-0.01B $0.00B -121.74%
2023-12-31 $-0.01B $0.01B -118.52%
2023-09-30 $-0.01B $0.01B -100.00%
2023-06-30 $-0.02B $0.01B -162.16%
2023-03-31 $-0.02B $0.01B -125.00%
2022-12-31 $-0.02B $0.01B -100.00%
2022-09-30 $-0.02B $0.01B -82.19%
2022-06-30 $0.01B $0.02B 22.99%
2022-03-31 $0.01B $0.02B 44.44%
2021-12-31 $0.01B $0.02B 57.14%
2021-09-30 $0.01B $0.03B 75.86%
2021-06-30 $-0.00B $0.01B -9.09%
2021-03-31 $-0.01B $0.01B -55.81%
2020-12-31 $-0.01B $0.01B -83.33%
2020-09-30 $-0.02B $0.01B -105.26%
2020-06-30 $-0.02B $0.01B -82.19%
2020-03-31 $-0.01B $0.01B -58.43%
2019-12-31 $-0.01B $0.02B -43.14%
2019-09-30 $-0.00B $0.03B -14.16%
2019-06-30 $-0.00B $0.03B -13.79%
2019-03-31 $-0.00B $0.03B -10.17%
2018-12-31 $0.00B $0.03B 0.00%
2018-09-30 $0.01B $0.03B 20.17%
2018-06-30 $0.01B $0.03B 21.43%
2018-03-31 $0.01B $0.03B 23.08%
2017-12-31 $0.01B $0.03B 29.17%
2017-09-30 $0.00B $0.02B 4.60%
2017-06-30 $0.00B $0.02B 9.52%
2017-03-31 $0.00B $0.02B 4.94%
2016-12-31 $0.00B $0.02B 5.06%
2016-09-30 $0.00B $0.02B 5.26%
2016-06-30 $-0.00B $0.02B -16.22%
2016-03-31 $-0.00B $0.02B -20.78%
2015-12-31 $-0.00B $0.02B -19.75%
2015-09-30 $-0.01B $0.02B -27.91%
2015-06-30 $-0.00B $0.02B -17.20%
2015-03-31 $-0.01B $0.02B -20.41%
2014-12-31 $-0.01B $0.02B -26.92%
2014-09-30 $-0.01B $0.03B -21.62%
2014-06-30 $-0.01B $0.03B -17.09%
2014-03-31 $-0.01B $0.03B -36.36%
2013-12-31 $-0.01B $0.03B -30.30%
2013-09-30 $-0.01B $0.03B -27.97%
2013-06-30 $-0.01B $0.03B -20.92%
2013-03-31 $0.00B $0.04B 0.00%
2012-12-31 $0.00B $0.04B 4.94%
2012-09-30 $0.00B $0.04B 7.50%
2012-06-30 $0.00B $0.04B 7.64%
2012-03-31 $0.00B $0.04B 7.74%
2011-12-31 $0.00B $0.04B 7.79%
2011-09-30 $-0.00B $0.04B -2.63%
2011-06-30 $-0.00B $0.04B -7.84%
2011-03-31 $-0.00B $0.04B -7.79%
2010-12-31 $-0.00B $0.04B -10.46%
2010-09-30 $-0.00B $0.04B -7.84%
2010-06-30 $-0.00B $0.04B -5.23%
2010-03-31 $-0.00B $0.04B -2.94%
2009-12-31 $-0.00B $0.04B -3.36%
Sector Industry Market Cap Revenue
Computer and Technology Computer Software $0.011B $0.045B
GSE Systems, Inc. develops and delivers business and technology solutions by applying process control and simulation software, systems and services to the pharmaceutical and chemical research & development, energy, process and manufacturing industries worldwide. The company's products are used in the following industries: specialty chemical, food and beverage, petroleum refining, pharmaceutical, fossil and nuclear power generation, metals and water treatment. (PRESS RELEASE)
Stock Name Country Market Cap PE Ratio
Microsoft (MSFT) United States $3248.735B 37.85
Oracle (ORCL) United States $381.852B 31.00
Adobe (ADBE) United States $244.313B 39.53
Salesforce (CRM) United States $239.953B 35.73
Intuit (INTU) United States $177.948B 55.45
Synopsys (SNPS) United States $86.279B 59.46
Cadence Design Systems (CDNS) United States $76.265B 72.53
Autodesk (ADSK) United States $52.250B 47.63
Dassault Systemes SA (DASTY) France $50.191B 32.61
MicroStrategy (MSTR) United States $31.545B 0.00
ANSYS (ANSS) United States $27.459B 50.81
PTC (PTC) United States $21.058B 55.85
SS&C Technologies Holdings (SSNC) United States $16.459B 15.59
Manhattan Associates (MANH) United States $13.459B 71.43
Descartes Systems Group (DSGX) Canada $8.488B 71.01
Open Text (OTEX) Canada $8.286B 8.50
Trend Micro (TMICY) Japan $6.411B 46.43
CommVault Systems (CVLT) United States $5.299B 85.87
Pegasystems (PEGA) United States $5.074B 44.86
ACI Worldwide (ACIW) United States $4.369B 20.93
Blackbaud (BLKB) United States $3.993B 34.38
Progress Software (PRGS) United States $2.376B 15.26
Sapiens (SPNS) Israel $2.193B 29.91
Verint Systems (VRNT) United States $2.091B 19.58
BlackBerry (BB) Canada $1.429B 0.00
PROS Holdings (PRO) United States $1.109B 0.00
Simulations Plus (SLP) United States $0.791B 59.01
Rand Worldwide (RWWI) United States $0.663B 0.00
Magic Software Enterprises (MGIC) Israel $0.544B 11.54
Canaan (CAN) China $0.339B 0.00
American Software (AMSWA) United States $0.320B 27.49
OptimizeRx (OPRX) United States $0.183B 0.00
Rigetti Computing (RGTI) United States $0.179B 0.00
Neonode (NEON) Sweden $0.048B 0.00
Icad Inc (ICAD) United States $0.035B 0.00
NetSol Technologies (NTWK) United States $0.032B 0.00
Wetouch Technology (WETH) $0.026B 0.00
Smith Micro Software (SMSI) United States $0.022B 0.00
Hanryu Holdings (HRYU) South Korea $0.014B 0.00
SAP SE (SAP) Germany $0.000B 50.44